Location: Montr�al
(45.5000°N, 73.5830°W)
Time: 11:48:21
(UTC-04:00)

ISS - Visible Passes

Search period start: 03 June 2015 00:00
Search period end: 13 June 2015 00:00
Orbit: 398 x 404 km, 51.6° (Epoch: 03 June)

Date Brightness Start Highest point End Pass type
(mag) Time Alt. Az. Time Alt. Az. Time Alt. Az.
03 Jun -1.2 01:03:12 10° NW 01:06:07 29° N 01:09:01 10° ENE visible
03 Jun -3.3 02:39:35 10° WNW 02:42:51 81° NNE 02:46:07 10° ESE visible
03 Jun -1.7 04:16:47 10° W 04:18:56 16° SW 04:21:00 10° S visible
03 Jun -1.8 22:32:35 10° W 22:35:41 39° NNW 22:38:46 10° NE visible
04 Jun -1.1 00:09:48 10° WNW 00:12:38 26° N 00:15:28 10° ENE visible
04 Jun -2.5 01:46:19 10° NW 01:49:30 51° NNE 01:52:42 10° E visible
04 Jun -2.5 03:22:56 10° WNW 03:25:48 28° SW 03:26:01 28° SSW visible
04 Jun -2.6 21:39:05 10° WSW 21:42:17 57° NNW 21:45:30 10° ENE visible
04 Jun -1.1 23:16:18 10° WNW 23:19:08 27° N 23:21:59 10° ENE visible
05 Jun -1.8 00:53:02 10° NW 00:56:06 37° NNE 00:58:05 18° ENE visible
05 Jun -1.4 02:29:26 10° WNW 02:30:33 19° WNW 02:30:33 19° WNW visible
05 Jun -1.3 22:22:43 10° WNW 22:25:39 30° N 22:28:34 10° NE visible
05 Jun -1.4 23:59:42 10° NW 00:02:38 30° N 00:05:27 11° ENE visible
06 Jun -2.0 01:36:04 10° WNW 01:37:57 32° WNW 01:37:57 32° WNW visible
06 Jun -1.7 21:29:07 10° W 21:32:10 37° NNW 21:35:14 10° NE visible
06 Jun -1.2 23:06:18 10° WNW 23:09:08 27° N 23:11:58 10° ENE visible
07 Jun -2.7 00:42:46 10° WNW 00:45:49 55° N 00:45:49 55° N visible
07 Jun -1.1 22:12:47 10° WNW 22:15:37 26° N 22:18:26 10° ENE visible
07 Jun -2.0 23:49:28 10° NW 23:52:33 39° NNE 23:53:52 26° ENE visible
08 Jun -0.8 01:25:53 10° WNW 01:26:24 14° WNW 01:26:24 14° WNW visible
08 Jun -1.2 21:19:11 10° WNW 21:22:05 29° N 21:24:59 10° NE visible
08 Jun -1.5 22:56:07 10° NW 22:59:04 31° NNE 23:02:02 10° ENE visible
09 Jun -2.2 00:32:28 10° WNW 00:34:34 37° WNW 00:34:34 37° WNW visible
09 Jun -1.3 22:02:42 10° NW 22:05:33 27° N 22:08:24 10° ENE visible
09 Jun -3.0 23:39:07 10° WNW 23:42:22 63° NNE 23:42:48 54° ENE visible
10 Jun -2.2 22:45:48 10° NW 22:48:55 42° NNE 22:51:05 17° E visible
11 Jun -1.4 00:22:16 10° WNW 00:23:38 21° W 00:23:38 21° W visible
11 Jun -1.7 21:52:26 10° NW 21:55:24 32° NNE 21:58:24 10° E visible
11 Jun -3.4 23:28:47 10° WNW 23:31:58 70° SW 23:31:58 70° SW visible
12 Jun -3.2 22:35:24 10° WNW 22:38:38 70° NNE 22:40:19 26° ESE visible
